Location: Unspecified
(0.0000°N, 0.0000°E)
Time: 04:44:08
(UTC+00:00)

Secor 5 - Visible Passes

Search period start: 17 September 2024 00:00
Search period end: 27 September 2024 00:00
Orbit: 1139 x 2417 km, 69.2° (Epoch: 16 September)

Date Brightness Start Highest point End Pass type
(mag) Time Alt. Az. Time Alt. Az. Time Alt. Az.
17 Sep 8.3 20:39:11 10° N 20:47:15 41° N 20:47:15 41° N visible
17 Sep 9.6 22:48:12 10° NW 22:49:33 13° WNW 22:49:33 13° WNW visible
18 Sep 8.8 19:05:45 10° NNE 19:12:42 18° ENE 19:12:42 18° ENE visible
18 Sep 8.3 21:06:32 10° NNW 21:15:01 46° NNW 21:15:01 46° NNW visible
19 Sep 8.2 19:30:14 10° NNE 19:40:37 33° ENE 19:40:37 33° ENE visible
19 Sep 8.6 21:34:44 10° NNW 21:42:57 38° WNW 21:42:57 38° WNW visible
20 Sep 7.7 19:56:21 10° N 20:08:45 55° ENE 20:08:45 55° ENE visible
20 Sep 9.0 22:04:04 10° NW 22:11:06 26° WNW 22:11:06 26° WNW visible
21 Sep 8.8 18:24:41 10° NE 18:30:41 14° ENE 18:34:48 12° E visible
21 Sep 7.5 20:23:25 10° NNW 20:37:08 87° ENE 20:37:10 87° E visible
21 Sep 9.5 22:35:46 10° WNW 22:39:34 14° W 22:39:34 14° W visible
22 Sep 8.4 18:47:59 10° NNE 18:58:36 27° ENE 19:03:34 21° ESE visible
22 Sep 7.9 20:51:18 10° NNW 21:04:29 61° WSW 21:06:00 57° SW visible
23 Sep 7.8 19:13:39 10° N 19:26:23 46° ENE 19:33:03 26° SE visible
23 Sep 8.6 21:20:11 10° NW 21:31:42 36° WSW 21:35:34 30° SW visible
24 Sep 7.5 19:40:24 10° N 19:53:59 74° ENE 20:05:15 10° SSE visible
24 Sep 9.3 21:50:45 10° WNW 21:58:54 19° WSW 22:06:16 10° SW visible
25 Sep 8.6 18:05:59 10° NNE 18:15:18 22° ENE 18:23:40 10° ESE visible
25 Sep 7.7 20:07:59 10° NNW 20:21:24 72° WSW 20:32:29 10° S visible
26 Sep 8.0 18:31:04 10° N 18:43:08 38° ENE 18:53:28 10° SE visible
26 Sep 8.4 20:36:28 10° NW 20:48:39 43° WSW 20:58:54 10° S visible
